Location: ??????????
(54.8537°N, 38.8755°E)
Time: 23:30:37
(UTC+00:00)

Vanguard 2 Rocket - Pass Details

Date: 22 September 2024
Orbit: 553 x 3298 km, 32.9° (Epoch: 09 October)

Event Time Altitude Azimuth Distance (km) Brightness Sun altitude
Rises 20:40:18 0° 200° (SSW) 3,667 - -34.8°
Reaches altitude 10° 20:44:39 10° 171° (S) 3,209 - -34.9°
Maximum altitude 20:47:39 12° 149° (SSE) 3,369 - -35.0°
Drops below altitude 10° 20:51:12 10° 128° (SE) 3,957 - -35.0°
Exits shadow 20:56:54 - 108° (ESE) 5,335 10.6 -35.1°
Sets 20:58:19 0° 104° (ESE) 5,706 10.8 -35.2°
